sat.trackr.live / text

‹ back to catalog

PELICAN-9

NORAD 69019 · 2026-100AR

PAYLOAD ACTIVE UNKNOWN

§ Identity

Operator
Country
US
Launch date
2026-05-03
Launch site
AFWTR
Launch vehicle
Mass (kg)
RCS (m²)

Purposes: earth_obs

External: N2YO · Heavens-Above · Gunter

§ Orbital elements

Epoch: 2026-09-19T12:10:03.422784Z

Period
94.29 min
Inclination
97.2582°
Eccentricity
0.0003032
Mean motion
15.27234868 rev/d
Perigee alt
482.0 km
Apogee alt
486.2 km
Semi-major
6,862.2 km
B*
4.8402e-4
RAAN
158.2711°
Arg perigee
111.8753°
Mean anomaly
248.2809°
Rev number
2,117

§ Raw data

PELICAN-91 69019U 26100AR  26262.50698406  .00012857  00000+0  48402-3 0  99932 69019  97.2582 158.2711 0003032 111.8753 248.2809 15.27234868 21179

JSON: /api/v1/satellites/69019 · /tle

For live sub-satellite position, see the globe view (requires WebGL).

§ Visibility from observer

Set your observer location to see the next 7 days of passes ≥ 10°. The values pass through the URL so the page stays shareable.

No JS? Fill the form by hand. The geolocation button needs JavaScript.